SCP
1 1 1 1 1 1 1 1 1 1 1 1 1 1 1 1 1 1 1 1 1 0 0 0 0 0 0 0 0 0 0 1 1 1 1 1 1 1 1 1 0 1 1
1 1 1 1 1 1 1 1 1 1 1 1 1 1 1 1 1 1 1 1 1 0 1 0 0 0 0 0 0 0 0 1 1 1 1 1 1 1 1 1 1 1 1
1 1 1 1 1 1 1 1 1 1 1 1 1 1 1 1 1 1 1 1 1 1 0 0 0 0 0 1 0 0 0 0 1 1 1 1 1 1 1 1 1 1 1
1 1 1 1 1 1 1 1 1 1 1 1 1 1 1 1 1 1 1 1 1 1 0 0 0 0 1 1 0 0 0 0 0 1 1 1 1 1 1 1 1 1 1
1 1 1 1 1 1 1 1 1 1 1 1 1 1 1 1 1 1 1 1 1 1 1 0 0 0 1 1 1 1 0 0 0 1 1 1 1 1 1 1 1 1 1
1 1 1 1 1 1 1 1 1 1 1 1 1 1 1 1 1 1 1 1 1 1 1 0 0 1 1 1 1 1 1 0 0 1 1 1 1 1 1 1 1 1 1
0 1 1 1 1 1 1 1 1 1 1 1 1 1 1 1 1 1 1 1 1 1 1 1 1 1 1 1 1 1 1 0 0 1 1 1 1 2 2 2 2 1 1
0 0 1 1 1 1 1 1 1 1 2 1 1 1 1 1 1 1 1 1 1 1 1 1 1 1 1 1 1 1 1 1 1 1 1 2 2 2 2 2 2 2 2
1 1 1 1 1 1 1 1 2 2 2 2 2 2 1 1 1 1 1 1 1 1 1 1 1 1 1 1 1 1 1 1 1 1 2 2 2 2 2 2 2 2 2
1 1 1 1 1 1 1 1 2 2 2 2 2 2 2 1 1 1 1 1 1 1 1 1 1 1 1 1 1 1 1 1 1 1 2 2 2 2 2 2 2 2 1
1 1 1 1 1 1 1 1 2 2 2 2 2 2 2 1 1 1 1 1 1 1 1 1 1 1 1 1 1 1 1 1 1 1 2 2 2 2 2 2 2 2 1
1 1 1 1 1 1 1 1 2 2 2 2 2 2 1 1 1 1 1 1 1 1 1 1 1 1 1 1 1 1 1 1 1 1 1 1 1 1 1 1 1 1 1
2 2 2 2 2 2 2 2 2 2 2 2 2 2 2 1 1 1 1 1 1 1 1 1 1 1 1 1 1 1 1 1 1 1 1 1 1 1 1 1 1 1 1
2 2 3 3 3 2 3 3 3 3 3 3 2 2 2 2 1 1 2 2 1 1 1 1 1 1 1 1 1 1 1 1 1 1 1 1 1 1 1 1 1 1 1
3 3 3 4 4 3 3 3 3 3 3 3 3 3 3 2 2 2 2 2 2 1 1 1 1 1 1 1 1 1 1 1 1 1 1 2 2 1 1 1 1 1 1
4 4 4 5 5 4 3 3 3 3 3 3 3 3 3 2 2 2 2 2 2 2 2 2 2 2 2 2 2 1 1 1 1 1 1 1 2 1 1 1 1 1 1
4 4 5 5 5 5 4 4 3 3 3 3 3 3 3 2 2 2 2 2 2 2 2 2 2 3 3 3 3 2 2 2 2 1 1 2 2 2 2 1 1 1 1
4 4 4 5 5 5 5 4 3 3 2 2 2 3 3 2 2 2 2 2 3 3 4 3 3 3 4 4 3 3 2 2 1 1 1 2 2 2 2 2 2 2 1
3 3 3 4 4 5 5 5 4 3 2 2 2 2 2 2 2 2 3 3 4 5 5 4 4 4 3 3 3 2 2 1 1 1 1 1 1 1 2 2 2 2 2
3 3 3 4 4 4 4 4 4 3 3 3 2 2 2 2 2 3 4 5 6 6 5 4 4 3 2 2 2 1 1 1 1 1 1 1 1 1 1 1 2 2 1
4 5 5 5 5 4 4 3 3 4 4 4 4 3 3 3 4 5 5 6 6 5 5 4 3 2 2 2 2 2 1 1 1 1 1 1 1 1 1 1 1 1 1
6 7 7 7 6 5 4 3 3 4 4 5 4 4 4 4 4 5 5 5 4 4 3 3 3 3 2 3 3 2 2 1 1 1 1 1 1 1 1 1 1 1 1
5 6 6 7 6 5 4 3 3 4 4 5 4 4 4 4 4 4 4 3 3 3 3 3 4 4 3 3 4 3 2 2 2 2 1 1 1 1 1 1 1 1 1
4 4 5 5 6 5 5 4 3 4 4 4 4 4 3 3 3 3 3 3 3 3 3 3 4 4 4 4 4 4 3 3 3 3 2 2 2 1 1 1 1 1 1
5 5 5 5 5 5 5 4 4 4 4 4 4 3 3 2 3 3 3 3 4 4 3 4 4 4 4 4 5 5 4 4 4 4 3 3 3 2 2 1 1 2 2
6 5 5 5 6 5 5 4 4 4 4 4 4 3 2 2 2 2 3 3 4 4 4 4 4 4 4 5 5 5 4 5 5 4 4 3 3 3 2 1 2 2 2
Wind_Speed
6 9 10 5 5 5 5 6 6 6 7 7 7 6 6 7 7 7 7 7 6 7 7 7 6 7 7 7 7 7 7 8 8 8 9 10 10 10 10 10 9 9 12
7 10 10 6 5 5 6 6 6 6 6 6 7 6 6 6 6 6 6 6 6 6 7 7 7 7 6 6 6 6 7 7 8 8 9 10 11 11 10 9 6 7 13
8 10 10 6 6 6 6 6 6 6 6 6 6 6 6 6 6 6 6 6 6 6 6 7 6 7 6 6 6 6 6 7 7 8 9 8 10 11 10 9 8 9 11
9 9 8 7 6 6 6 6 5 6 6 6 6 6 6 6 6 6 6 6 6 6 6 7 7 7 7 6 6 6 5 5 6 8 6 6 7 11 10 9 9 9 11
8 8 10 7 6 6 6 5 5 5 6 6 6 6 6 6 6 6 6 6 5 5 6 6 6 6 6 6 5 5 5 5 5 7 4 5 6 11 10 9 9 9 10
9 8 11 6 6 6 5 5 5 5 5 5 5 5 5 5 5 5 5 5 5 5 5 5 5 5 4 4 5 5 5 4 5 3 4 4 6 11 10 9 9 9 10
8 8 11 7 6 5 5 5 5 5 5 5 5 5 5 5 4 4 4 4 4 4 4 4 4 4 4 4 4 5 4 3 2 3 4 4 6 10 9 8 8 8 10
8 8 10 9 6 5 5 4 4 4 4 4 4 4 4 4 4 4 4 4 4 4 4 4 4 3 3 3 3 3 3 3 3 3 4 4 8 9 9 8 8 8 8
7 7 8 8 8 7 5 4 4 4 4 4 4 4 3 3 3 3 4 4 3 3 3 3 3 3 2 2 3 3 3 2 2 3 4 4 9 8 9 8 8 8 8
7 6 6 6 6 6 7 6 4 3 4 4 4 3 2 4 4 3 5 4 3 2 2 3 3 3 2 2 3 3 3 4 2 3 3 6 9 8 8 8 8 8 7
6 5 5 5 5 4 4 6 5 5 4 4 4 3 3 2 3 4 4 4 3 2 2 1 2 2 2 4 4 4 4 2 2 1 3 9 8 7 7 7 8 8 8
7 6 5 5 5 4 3 4 3 3 4 2 2 2 2 1 0 1 6 4 3 2 3 3 3 4 5 3 5 5 2 1 1 2 5 10 7 6 6 6 6 8 8
7 6 5 5 4 4 3 3 2 1 2 2 2 1 0 0 1 1 2 4 3 4 2 3 4 2 1 1 0 1 0 0 1 1 5 9 6 5 5 5 5 6 7
7 7 5 5 4 3 2 2 2 1 1 1 2 1 0 0 0 0 1 0 1 1 0 1 1 0 1 1 1 1 1 1 0 1 4 7 5 4 4 4 5 5 6
7 7 6 5 4 3 2 2 1 1 1 1 1 1 1 1 1 1 0 0 1 0 1 1 1 1 1 1 1 1 0 0 1 0 3 7 5 4 4 5 6 6 6
8 7 6 6 6 5 4 3 2 2 1 1 1 1 1 1 1 1 1 1 1 1 1 2 1 1 1 0 0 1 1 1 0 1 1 5 7 5 4 4 4 5 5
7 7 7 7 6 6 4 4 3 2 2 1 1 1 1 1 1 2 1 1 1 1 1 1 1 1 1 1 1 1 1 1 1 1 2 1 3 6 5 4 4 4 5
7 7 7 5 6 6 4 3 2 2 2 1 1 1 1 2 2 2 1 1 1 1 1 1 1 1 1 1 1 1 1 1 2 2 2 2 2 2 5 6 4 4 4
7 7 7 6 6 6 5 4 3 2 2 2 1 1 1 2 2 2 1 0 2 1 1 2 0 1 1 1 1 1 1 1 2 2 2 2 2 2 2 5 7 5 4
7 7 6 6 6 6 5 4 3 2 2 2 2 1 1 2 2 2 1 0 2 1 1 1 1 1 1 1 2 1 2 1 1 1 2 2 2 2 2 2 4 5 7
6 6 6 6 5 5 4 4 3 3 2 2 1 1 1 2 2 2 2 0 1 1 1 1 2 2 2 1 2 2 2 3 2 1 2 2 2 2 2 2 2 2 3
6 6 6 6 6 6 4 3 2 2 2 2 1 1 1 1 1 1 1 1 1 1 1 2 2 2 2 2 2 2 2 3 3 3 2 2 2 1 2 3 2 2 3
6 6 5 5 5 5 4 4 3 3 2 2 2 1 1 1 1 2 2 2 1 2 1 2 3 4 3 3 3 3 3 2 1 2 2 2 1 1 2 1 3 2 3
6 5 5 5 5 4 5 4 4 3 2 2 1 1 1 1 1 1 1 2 2 2 1 3 2 3 4 4 3 3 3 3 3 1 2 2 3 2 2 2 2 2 3
5 5 5 5 4 4 4 4 4 3 2 2 2 2 2 1 1 1 1 2 2 3 2 3 3 4 4 5 4 3 3 3 5 4 3 2 2 2 2 2 2 2 2
5 5 6 5 4 4 4 3 3 3 2 2 2 2 2 1 1 1 2 2 3 3 3 3 3 4 4 5 5 4 4 4 4 4 4 4 2 2 1 1 2 2 2
Wind_Direction
130 116 114 115 113 106 102 102 98 101 101 102 105 101 98 94 91 90 91 92 95 101 104 105 105 108 113 124 131 130 128 130 132 139 140 138 137 138 140 149 157 140 133
127 120 121 118 118 113 107 104 101 103 103 104 107 102 101 100 97 95 96 96 97 99 104 104 102 102 106 112 121 129 134 136 141 147 151 149 143 145 149 155 151 126 135
127 123 130 117 119 116 111 107 106 107 103 104 107 104 101 101 100 100 100 97 95 98 104 103 97 96 94 94 104 123 138 144 151 162 178 164 146 149 153 150 141 139 142
128 128 123 118 121 119 114 110 107 109 104 103 106 106 104 103 100 98 100 97 94 96 99 100 96 96 89 89 97 109 127 146 161 191 188 157 148 144 151 150 146 147 146
129 130 117 124 121 119 115 112 109 108 106 104 105 105 102 99 98 99 103 101 97 97 100 100 99 99 96 100 103 110 123 145 181 211 164 150 140 137 148 151 149 148 150
138 137 120 127 122 120 118 113 110 107 106 104 105 105 102 100 98 102 105 105 100 102 104 106 105 100 97 97 101 112 131 160 204 176 135 144 136 137 148 150 148 149 153
139 134 127 128 125 123 120 115 111 109 107 104 103 102 101 99 102 104 110 107 104 105 107 105 104 103 100 97 99 106 121 167 216 132 126 134 119 135 146 147 147 152 155
138 135 127 137 135 131 124 116 110 107 103 98 97 100 104 102 101 105 117 111 105 103 103 98 98 105 106 104 107 106 119 203 172 127 121 123 117 135 144 151 154 155 159
140 139 139 148 150 149 135 122 112 107 102 98 97 98 105 115 112 114 127 118 111 104 102 101 94 99 110 109 113 118 130 217 240 131 133 118 119 139 151 158 162 160 162
143 147 145 148 152 163 155 142 133 122 116 120 114 108 131 152 150 146 150 123 113 106 105 102 97 91 100 117 129 142 165 217 205 141 132 119 128 145 160 165 168 167 167
148 153 151 149 154 168 158 142 161 158 145 169 154 148 205 189 160 165 119 118 128 127 130 123 130 123 152 152 155 170 201 217 145 109 111 113 133 151 163 172 173 174 174
160 164 158 158 158 167 160 146 176 172 153 189 138 162 197 131 72 114 123 139 152 168 182 183 205 205 226 170 157 188 212 171 141 129 117 124 139 156 164 170 174 176 179
161 163 162 163 167 171 160 162 170 170 152 178 151 182 126 242 165 184 159 162 176 190 201 168 202 213 213 49 20 189 248 186 124 119 115 130 146 162 170 172 174 175 181
167 169 169 161 167 183 171 167 182 175 162 169 141 217 188 241 303 329 233 196 199 185 212 278 245 212 223 200 236 229 185 251 100 107 117 136 153 169 176 180 180 180 179
177 176 174 174 173 179 186 213 191 200 190 158 163 160 274 255 275 271 255 265 264 293 236 271 287 260 240 211 214 207 248 337 326 195 134 144 165 184 190 192 196 193 186
182 183 177 184 181 186 188 206 207 210 193 210 173 143 236 272 307 275 235 255 286 290 320 310 307 291 267 284 240 171 229 218 179 250 198 157 166 177 193 201 202 199 194
185 185 188 190 184 193 196 207 210 211 198 206 177 181 235 265 277 275 258 243 298 289 278 275 289 280 251 222 219 217 214 222 202 210 228 205 171 172 181 192 197 197 197
188 183 189 194 187 189 195 209 212 218 213 210 218 203 220 277 283 273 266 269 291 263 261 266 266 274 274 267 250 241 211 197 211 213 220 214 213 196 179 179 188 193 208
187 184 184 192 192 192 190 194 203 195 219 227 226 248 239 262 272 270 266 336 257 245 260 275 344 275 260 268 246 213 229 226 215 222 234 231 214 223 214 166 181 189 206
186 185 186 189 191 194 192 193 201 196 203 216 217 230 281 274 274 281 259 174 261 243 253 280 278 243 249 248 266 246 237 247 238 224 236 213 206 221 224 194 189 187 191
178 180 184 191 186 193 194 203 201 199 206 207 203 172 236 274 271 272 296 202 259 251 271 263 243 211 220 221 249 234 213 208 215 226 233 245 221 213 213 193 208 211 193
179 181 182 186 185 197 192 203 210 219 217 199 191 140 223 263 282 258 291 276 256 257 230 255 244 249 237 215 257 259 240 201 191 203 212 209 225 218 204 193 186 206 235
183 184 182 183 183 191 193 195 187 188 204 181 183 170 181 217 260 310 299 288 260 256 239 249 248 248 254 233 237 269 275 277 273 174 198 208 217 236 242 215 207 219 229
185 175 172 176 179 183 192 198 198 198 205 206 207 173 182 186 224 264 284 272 265 270 265 252 243 260 257 252 232 241 272 310 278 232 198 195 206 223 256 259 240 225 231
177 166 160 164 169 173 191 191 206 216 219 190 181 167 217 184 208 253 261 267 259 263 268 271 264 259 258 262 258 246 241 240 246 259 252 234 216 220 230 243 250 248 240
163 158 154 158 161 167 176 181 201 212 218 201 198 186 211 196 200 228 257 263 258 266 266 261 258 255 262 270 273 265 253 248 242 244 249 249 250 245 233 257 256 250 247